Location: Chicago
(41.8500°N, 87.6500°W)
Time: 20:34:37
(UTC-06:00)

ISS - Visible Passes

Search period start: 22 February 2017 00:00
Search period end: 04 March 2017 00:00
Orbit: 399 x 408 km, 51.6° (Epoch: 23 February)

Date Brightness Start Highest point End Pass type
(mag) Time Alt. Az. Time Alt. Az. Time Alt. Az.
28 Feb -1.0 05:56:17 10° SSW 05:59:03 25° SE 06:01:49 10° ENE visible
01 Mar -0.3 05:04:58 10° SSE 05:06:40 13° SE 05:08:23 10° E visible
02 Mar -2.8 05:46:56 10° SW 05:50:10 60° SE 05:53:26 10° ENE visible
03 Mar -1.6 04:55:29 15° SSW 04:57:40 30° SE 05:00:37 10° ENE visible
